Regional Weather Roundup
Issued by NWS

Home | Current Version | Previous Version | Graphics & Text | Print | Product List | Glossary On
Versions: 1 2 3 4 5 6 7 8 9 10 11 12 13 14 15 16 17 18 19 20 21 22 23 24 25 26 27 28 29 30 31 32 33 34 35 36 37 38 39 40 41 42 43 44 45 46 47 48 49 50
000
ASUS43 KBIS 041002
RWRND

NORTH DAKOTA REGIONAL WEATHER ROUNDUP
NATIONAL WEATHER SERVICE BISMARCK ND
500 AM CDT TUE AUG 04 2015

NOTE: "FAIR" INDICATES FEW OR NO CLOUDS BELOW 12,000 FEET WITH NO
SIGNIFICANT WEATHER AND/OR OBSTRUCTIONS TO VISIBILITY.


NDZ001>003-009>011-017-041100-
NORTHWEST NORTH DAKOTA

CITY           SKY/WX    TMP DP  RH WIND       PRES   REMARKS
WILLISTON      PTCLDY    60  50  69 NE3       29.96S
MINOT          CLEAR     54  49  83 SW3       29.98S
MINOT AFB      CLEAR     48  48  99 SW3       29.97S
$$

NDZ018>021-031>035-040>046-041100-
SOUTHWEST NORTH DAKOTA

CITY           SKY/WX    TMP DP  RH WIND       PRES   REMARKS
BISMARCK       CLEAR     54  49  83 NE7       29.98S
DICKINSON      PTCLDY    53  48  83 E9        29.95F
GARRISON         N/A     54  51  90 CALM      29.97F
HETTINGER ARPT PTCLDY    59  50  72 E8        29.97S
$$

NDZ004>008-012>016-024-026-027-054-041100-
NORTHEAST NORTH DAKOTA

CITY           SKY/WX    TMP DP  RH WIND       PRES   REMARKS
GRAND FORKS    CLEAR     50  47  89 NW6       29.96R
GRND FRKS AFB  CLEAR     48  46  93 N7        29.96S
DEVILS LAKE    CLEAR     52  45  76 CALM      29.97S
$$

NDZ022-023-025-028>030-036>039-047>053-041100-
SOUTHEAST NORTH DAKOTA

CITY           SKY/WX    TMP DP  RH WIND       PRES   REMARKS
FARGO          CLEAR     53  47  79 SW3       29.95S
JAMESTOWN      FOG       49  48  97 CALM      29.96S VSB 1/4
$$




USA.gov is the U.S. government's official web portal to all federal, state and local government web resources and services.